Regional Weather Roundup
Issued by NWS

Home | Current Version | Previous Version | Graphics & Text | Print | Product List | Glossary On
Versions: 1 2 3 4 5 6 7 8 9 10 11 12 13 14 15 16 17 18 19 20 21 22 23 24 25 26 27
000
ASUS45 KCYS 251310
RWRWY

WYOMING REGIONAL WEATHER ROUNDUP
NATIONAL WEATHER SERVICE CHEYENNE WY
700 AM MDT TUE JUL 25 2017

NOTE:  "FAIR" INDICATES FEW OR NO CLOUDS BELOW 12,000 FEET
WITH NO SIGNIFICANT WEATHER AND/OR OBSTRUCTIONS TO VISIBILITY.

WYZ001-251400-
YELLOWSTONE NATIONAL PARK

CITY           SKY/WX    TMP DP  RH WIND       PRES   REMARKS
LK YELLOWSTONE   N/A     45  43  93 CALM      30.32R
W YELLOWSTONE  NOT AVBL

$$
WYZ002>013-054>058-071-098>099-251400-
NORTHERN WYOMING

CITY           SKY/WX    TMP DP  RH WIND       PRES   REMARKS
JACKSON        CLEAR     52  45  76 CALM      30.22R
CODY           FAIR      66  44  45 NE9       30.13R
GREYBULL       FAIR      64  32  30 W3        30.01R
WORLAND        FAIR      65  41  41 S8        30.02R
SHERIDAN       FAIR      67  52  58 CALM      30.02R
BUFFALO        FAIR      68  47  46 SW7       30.09R
GILLETTE       FAIR      67  55  65 NW6       30.00R
HULETT         FAIR      68  54  60 E5        30.02R
NEWCASTLE      FAIR      68  45  42 NW5       29.96R

$$
WYZ014>020-022>026-101>103-251400-
CENTRAL WYOMING

CITY           SKY/WX    TMP DP  RH WIND       PRES   REMARKS
BIG PINEY      CLOUDY    62  42  47 E8        30.23R
PINEDALE       CLOUDY    59  43  55 MISG      30.26S
DUBOIS         CLOUDY    55  36  47 NW6       30.24R
LANDER         FAIR      67  40  37 CALM      30.10R
RIVERTON       FAIR      63  40  42 W5        30.13R
CASPER         FAIR      64  44  48 SW5       30.09F
DOUGLAS        FAIR      67  47  48 NW10      30.06R

$$
WYZ021-027>030-104>119-251400-
SOUTHERN WYOMING

CITY           SKY/WX    TMP DP  RH WIND       PRES   REMARKS
EVANSTON       CLOUDY    57  56  96 SW10      30.27R
KEMMERER         N/A     63  46  55 W13       30.26S
FORT BRIDGER   CLOUDY    64  49  58 SW12      30.29S
ROCK SPRINGS   LGT RAIN  64  53  67 W13       30.23F
RAWLINS        FAIR      66  50  56 SW18G26   30.23R
SARATOGA       FAIR      64  43  45 SW5       30.26R
LARAMIE        FAIR      60  43  53 SE5       30.23R
CHEYENNE       FAIR      66  42  41 NW6       30.12R
TORRINGTON     FAIR      68  54  60 CALM      29.95R
PINE BLUFFS    FAIR      61  50  67 CALM      30.07R

$$




USA.gov is the U.S. government's official web portal to all federal, state and local government web resources and services.